Location: Saluda
(35.2377°N, 82.3468°W)
Time: 21:32:41
(UTC+00:00)

Vanguard 3 - Pass Details

Date: 11 October 2022
Orbit: 509 x 3255 km, 33.3° (Epoch: 01 December)

Event Time Altitude Azimuth Distance (km) Brightness Sun altitude
Rises 16:42:10 0° 270° (W) 2,976 10.0 46.8°
Reaches altitude 10° 16:44:26 10° 256° (WSW) 2,267 9.6 46.9°
Maximum altitude 16:48:51 27° 199° (SSW) 1,796 10.1 47.1°
Drops below altitude 10° 16:55:27 10° 146° (SE) 3,495 11.2 47.3°
Sets 16:59:57 0° 136° (SE) 4,998 11.7 47.4°
